| time (UTC) | temp C | wind direction | speed KPH | gust KPH | rain 1hr cm | rain 24hr cm | rain mn cm | humidity % | barometer mb |
| 20260510071558 | 9 | 0 | 0.0 | 1.6 | 0.00 | 0.99 | 0.00 | 96 | 1010.7 |
| 20260510071058 | 9 | 0 | 0.0 | 1.6 | 0.00 | 0.99 | 0.00 | 96 | 1010.6 |
| 20260510070558 | 9 | 0 | 0.0 | 0.0 | 0.00 | 0.99 | 0.00 | 96 | 1010.9 |
| 20260510070100 | 9 | 0 | 0.0 | 0.0 | 0.00 | 0.99 | 0.00 | 95 | 1011.0 |
| 20260510065602 | 8 | 0 | 0.0 | 0.0 | 0.00 | 0.99 | 0.00 | 95 | 1011.2 |
| 20260510065058 | 8 | 0 | 0.0 | 0.0 | 0.00 | 0.99 | 0.00 | 95 | 1011.3 |
| 20260510064607 | 8 | 0 | 0.0 | 1.6 | 0.00 | 0.99 | 0.00 | 95 | 1011.5 |
| 20260510064059 | 8 | 0 | 0.0 | 1.6 | 0.00 | 0.99 | 0.00 | 95 | 1011.3 |
| 20260510063559 | 8 | 0 | 0.0 | 1.6 | 0.00 | 0.99 | 0.00 | 95 | 1011.5 |
| 20260510063059 | 9 | 0 | 0.0 | 1.6 | 0.00 | 0.99 | 0.00 | 95 | 1011.6 |
| 20260510062559 | 9 | 78 | 0.0 | 0.0 | 0.00 | 0.99 | 0.00 | 95 | 1011.6 |
| 20260510062058 | 9 | 0 | 0.0 | 1.6 | 0.00 | 0.99 | 0.00 | 95 | 1011.7 |
| 20260510061603 | 9 | 0 | 0.0 | 1.6 | 0.00 | 0.99 | 0.00 | 95 | 1011.9 |
| 20260510061058 | 9 | 0 | 0.0 | 1.6 | 0.00 | 0.99 | 0.00 | 95 | 1012.0 |
| 20260510060559 | 9 | 0 | 0.0 | 1.6 | 0.00 | 0.99 | 0.00 | 95 | 1012.1 |
| 20260510060058 | 9 | 0 | 0.0 | 1.6 | 0.00 | 0.99 | 0.00 | 95 | 1012.2 |
| 20260510055558 | 9 | 0 | 0.0 | 1.6 | 0.00 | 0.99 | 0.00 | 95 | 1012.3 |
| 20260510055058 | 9 | 0 | 0.0 | 1.6 | 0.00 | 0.99 | 0.00 | 95 | 1012.3 |
| 20260510054559 | 8 | 0 | 0.0 | 1.6 | 0.00 | 0.99 | 0.00 | 95 | 1012.4 |
| 20260510054057 | 8 | 0 | 0.0 | 1.6 | 0.00 | 0.99 | 0.00 | 95 | 1012.2 |
| 20260510053558 | 8 | 225 | 0.0 | 4.8 | 0.00 | 0.99 | 0.00 | 95 | 1012.4 |
| 20260510053100 | 8 | 0 | 0.0 | 9.7 | 0.00 | 0.99 | 0.00 | 95 | 1012.5 |
| 20260510052559 | 8 | 0 | 0.0 | 9.7 | 0.00 | 0.99 | 0.00 | 95 | 1012.5 |
| 20260510052058 | 8 | 316 | 1.6 | 8.0 | 0.00 | 0.99 | 0.00 | 95 | 1012.6 |
| 20260510051600 | 8 | 0 | 1.6 | 9.7 | 0.00 | 0.99 | 0.00 | 95 | 1012.3 |
| 20260510051059 | 8 | 356 | 1.6 | 11.3 | 0.00 | 0.99 | 0.00 | 95 | 1012.4 |
| 20260510050602 | 8 | 352 | 1.6 | 11.3 | 0.00 | 0.99 | 0.00 | 95 | 1011.8 |
| 20260510050057 | 8 | 0 | 1.6 | 9.7 | 0.00 | 0.99 | 0.00 | 95 | 1011.8 |
| 20260510045559 | 8 | 0 | 1.6 | 8.0 | 0.00 | 0.99 | 0.00 | 95 | 1011.8 |
| 20260510045059 | 8 | 0 | 1.6 | 9.7 | 0.00 | 0.99 | 0.00 | 95 | 1011.8 |
| 20260510044638 | 8 | 0 | 1.6 | 12.9 | 0.00 | 0.99 | 0.00 | 95 | 1011.8 |
| 20260510044058 | 8 | 0 | 1.6 | 12.9 | 0.00 | 0.99 | 0.00 | 95 | 1011.9 |
| 20260510043558 | 7 | 352 | 0.0 | 6.4 | 0.00 | 0.99 | 0.00 | 95 | 1011.7 |
| 20260510043058 | 7 | 0 | 0.0 | 0.0 | 0.00 | 0.99 | 0.00 | 95 | 1011.6 |
| 20260510042602 | 7 | 0 | 0.0 | 0.0 | 0.00 | 0.99 | 0.00 | 95 | 1011.7 |
| 20260510042058 | 8 | 0 | 0.0 | 0.0 | 0.00 | 0.99 | 0.00 | 95 | 1011.5 |
| 20260510041601 | 8 | 0 | 0.0 | 0.0 | 0.00 | 0.99 | 0.00 | 95 | 1011.4 |
| 20260510041059 | 8 | 0 | 0.0 | 0.0 | 0.00 | 0.99 | 0.00 | 95 | 1011.1 |
| 20260510040558 | 8 | 0 | 0.0 | 0.0 | 0.00 | 0.99 | 0.00 | 95 | 1011.0 |
| 20260510040112 | 8 | 0 | 0.0 | 0.0 | 0.00 | 0.99 | 0.00 | 95 | 1011.0 |
| 20260510035558 | 8 | 0 | 0.0 | 0.0 | 0.00 | 1.02 | 0.99 | 95 | 1010.8 |
| 20260510035059 | 8 | 0 | 0.0 | 0.0 | 0.00 | 1.02 | 0.99 | 95 | 1010.5 |
| 20260510034602 | 8 | 0 | 0.0 | 0.0 | 0.00 | 1.02 | 0.99 | 95 | 1010.5 |
| 20260510034059 | 8 | 0 | 0.0 | 0.0 | 0.00 | 1.02 | 0.99 | 95 | 1010.4 |
| 20260510033558 | 8 | 0 | 0.0 | 0.0 | 0.00 | 1.02 | 0.99 | 95 | 1010.4 |
| 20260510033100 | 8 | 0 | 0.0 | 0.0 | 0.00 | 1.02 | 0.99 | 95 | 1010.4 |
| 20260510032558 | 8 | 0 | 0.0 | 0.0 | 0.00 | 1.02 | 0.99 | 95 | 1010.4 |
| 20260510032058 | 8 | 0 | 0.0 | 0.0 | 0.00 | 1.02 | 0.99 | 95 | 1010.4 |
| 20260510031600 | 8 | 0 | 0.0 | 0.0 | 0.00 | 1.02 | 0.99 | 95 | 1010.5 |
| 20260510031103 | 8 | 0 | 0.0 | 0.0 | 0.00 | 1.02 | 0.99 | 95 | 1010.5 |
| 20260510030558 | 8 | 0 | 0.0 | 0.0 | 0.00 | 1.02 | 0.99 | 95 | 1010.5 |
| 20260510030058 | 8 | 0 | 0.0 | 0.0 | 0.00 | 1.02 | 0.99 | 95 | 1010.7 |
| 20260510025558 | 9 | 0 | 0.0 | 0.0 | 0.00 | 1.02 | 0.99 | 95 | 1010.7 |
| 20260510025058 | 9 | 0 | 0.0 | 1.6 | 0.00 | 1.02 | 0.99 | 95 | 1010.6 |
| 20260510024559 | 9 | 0 | 0.0 | 1.6 | 0.00 | 1.02 | 0.99 | 95 | 1010.5 |
| 20260510024058 | 9 | 318 | 0.0 | 1.6 | 0.00 | 1.02 | 0.99 | 95 | 1010.6 |
| 20260510023558 | 9 | 0 | 0.0 | 1.6 | 0.00 | 1.02 | 0.99 | 94 | 1010.6 |
| 20260510023104 | 9 | 0 | 0.0 | 1.6 | 0.00 | 1.02 | 0.99 | 94 | 1010.7 |
| 20260510022558 | 9 | 0 | 0.0 | 1.6 | 0.00 | 1.02 | 0.99 | 94 | 1010.6 |
| 20260510022100 | 9 | 0 | 0.0 | 0.0 | 0.00 | 1.02 | 0.99 | 94 | 1010.5 |
| 20260510021557 | 9 | 0 | 0.0 | 9.7 | 0.00 | 1.02 | 0.99 | 94 | 1010.6 |
| 20260510021058 | 9 | 0 | 0.0 | 9.7 | 0.00 | 1.02 | 0.99 | 94 | 1010.6 |
| 20260510020558 | 10 | 134 | 1.6 | 9.7 | 0.00 | 1.02 | 0.99 | 94 | 1010.6 |
| 20260510020100 | 10 | 0 | 1.6 | 11.3 | 0.00 | 1.02 | 0.99 | 94 | 1010.6 |
| 20260510015600 | 10 | 259 | 1.6 | 11.3 | 0.00 | 1.02 | 0.99 | 94 | 1010.6 |
| 20260510015058 | 10 | 0 | 1.6 | 11.3 | 0.00 | 1.02 | 0.99 | 94 | 1010.6 |
| 20260510014604 | 10 | 0 | 3.2 | 11.3 | 0.00 | 1.02 | 0.99 | 94 | 1010.6 |
| 20260510014058 | 10 | 257 | 1.6 | 12.9 | 0.00 | 1.02 | 0.99 | 94 | 1010.6 |
| 20260510013559 | 10 | 257 | 1.6 | 12.9 | 0.00 | 1.02 | 0.99 | 94 | 1010.6 |
| 20260510013058 | 10 | 0 | 3.2 | 12.9 | 0.00 | 1.02 | 0.99 | 94 | 1010.6 |
| 20260510012601 | 10 | 0 | 1.6 | 11.3 | 0.00 | 1.02 | 0.99 | 94 | 1010.4 |
| 20260510012058 | 10 | 288 | 1.6 | 11.3 | 0.00 | 1.02 | 0.99 | 94 | 1010.4 |
| 20260510011601 | 10 | 0 | 1.6 | 11.3 | 0.00 | 1.02 | 0.99 | 94 | 1010.4 |
| 20260510011057 | 10 | 288 | 1.6 | 6.4 | 0.00 | 1.02 | 0.99 | 94 | 1010.4 |
| 20260510010557 | 10 | 0 | 0.0 | 0.0 | 0.00 | 1.02 | 0.99 | 93 | 1010.2 |
| 20260510010137 | 11 | 0 | 0.0 | 6.4 | 0.00 | 1.02 | 0.99 | 93 | 1010.2 |
| 20260510005603 | 11 | 0 | 0.0 | 9.7 | 0.00 | 1.04 | 0.99 | 93 | 1010.0 |
| 20260510005058 | 11 | 0 | 1.6 | 9.7 | 0.00 | 1.04 | 0.99 | 93 | 1010.0 |
| 20260510004604 | 11 | 288 | 1.6 | 9.7 | 0.00 | 1.04 | 0.99 | 93 | 1010.0 |
| 20260510004101 | 11 | 0 | 1.6 | 6.4 | 0.00 | 1.04 | 0.99 | 92 | 1009.9 |
| 20260510003559 | 11 | 288 | 1.6 | 6.4 | 0.00 | 1.04 | 0.99 | 92 | 1009.9 |
| 20260510003101 | 11 | 0 | 0.0 | 0.0 | 0.00 | 1.04 | 0.99 | 92 | 1009.9 |
| 20260510002601 | 12 | 0 | 0.0 | 0.0 | 0.00 | 1.04 | 0.99 | 91 | 1009.7 |
| 20260510002058 | 12 | 0 | 0.0 | 1.6 | 0.00 | 1.04 | 0.99 | 91 | 1009.8 |
| 20260510001605 | 12 | 0 | 0.0 | 1.6 | 0.00 | 1.04 | 0.99 | 91 | 1009.7 |
| 20260510001101 | 12 | 0 | 0.0 | 1.6 | 0.00 | 1.04 | 0.99 | 90 | 1009.6 |
| 20260510000558 | 12 | 0 | 0.0 | 0.0 | 0.00 | 1.04 | 0.99 | 90 | 1009.7 |
| 20260509235558 | 13 | 0 | 0.0 | 0.0 | 0.00 | 1.04 | 0.99 | 90 | 1009.5 |
| 20260509235058 | 13 | 0 | 0.0 | 3.2 | 0.00 | 1.04 | 0.99 | 91 | 1009.6 |
| 20260509234643 | 13 | 0 | 0.0 | 3.2 | 0.00 | 1.04 | 0.99 | 91 | 1009.7 |
| 20260509234102 | 13 | 288 | 0.0 | 3.2 | 0.00 | 1.04 | 0.99 | 92 | 1009.5 |
| 20260509233604 | 13 | 0 | 0.0 | 3.2 | 0.00 | 1.04 | 0.99 | 93 | 1009.3 |
| 20260509233058 | 13 | 0 | 0.0 | 3.2 | 0.00 | 1.04 | 0.99 | 94 | 1009.3 |
| 20260509232559 | 13 | 0 | 0.0 | 3.2 | 0.00 | 1.04 | 0.99 | 94 | 1009.3 |
| 20260509232103 | 14 | 0 | 0.0 | 3.2 | 0.00 | 1.04 | 0.99 | 94 | 1009.3 |
| 20260509231602 | 14 | 0 | 0.0 | 3.2 | 0.00 | 1.04 | 0.99 | 94 | 1009.3 |
| 20260509231058 | 14 | 276 | 0.0 | 3.2 | 0.00 | 1.04 | 0.99 | 94 | 1009.4 |
| 20260509230558 | 15 | 0 | 0.0 | 4.8 | 0.00 | 1.04 | 0.99 | 94 | 1009.4 |
| 20260509225559 | 15 | 0 | 1.6 | 4.8 | 0.00 | 1.09 | 0.99 | 94 | 1009.4 |
| 20260509225058 | 15 | 282 | 0.0 | 1.6 | 0.00 | 1.09 | 0.99 | 95 | 1009.3 |
| 20260509224602 | 15 | 0 | 0.0 | 4.8 | 0.00 | 1.09 | 0.99 | 95 | 1009.3 |
| 20260509224058 | 15 | 0 | 0.0 | 4.8 | 0.00 | 1.09 | 0.99 | 95 | 1009.4 |
| 20260509223558 | 15 | 295 | 0.0 | 1.6 | 0.00 | 1.09 | 0.99 | 95 | 1009.3 |
| 20260509223102 | 15 | 0 | 0.0 | 3.2 | 0.00 | 1.09 | 0.99 | 95 | 1009.3 |
| 20260509222602 | 15 | 0 | 0.0 | 3.2 | 0.00 | 1.09 | 0.99 | 95 | 1009.2 |
| 20260509222102 | 15 | 0 | 0.0 | 6.4 | 0.00 | 1.09 | 0.99 | 95 | 1009.4 |
| 20260509221558 | 14 | 0 | 0.0 | 9.7 | 0.00 | 1.09 | 0.99 | 95 | 1009.4 |
| 20260509221058 | 14 | 0 | 0.0 | 9.7 | 0.00 | 1.09 | 0.99 | 95 | 1009.6 |
| 20260509220602 | 14 | 0 | 1.6 | 9.7 | 0.00 | 1.09 | 0.99 | 95 | 1009.6 |
| 20260509220110 | 14 | 58 | 3.2 | 9.7 | 0.00 | 1.09 | 0.99 | 95 | 1009.6 |
| 20260509215602 | 13 | 260 | 3.2 | 9.7 | 0.00 | 1.09 | 0.99 | 95 | 1009.7 |
| 20260509215101 | 14 | 264 | 1.6 | 9.7 | 0.00 | 1.09 | 0.99 | 95 | 1009.7 |
| 20260509214603 | 14 | 130 | 1.6 | 6.4 | 0.00 | 1.09 | 0.99 | 95 | 1009.7 |
| 20260509214058 | 14 | 188 | 0.0 | 6.4 | 0.00 | 1.09 | 0.99 | 95 | 1009.7 |
| 20260509213601 | 13 | 46 | 1.6 | 6.4 | 0.00 | 1.09 | 0.99 | 95 | 1009.5 |
| 20260509213102 | 13 | 289 | 1.6 | 6.4 | 0.00 | 1.09 | 0.99 | 95 | 1009.7 |
| 20260509212558 | 13 | 250 | 3.2 | 6.4 | 0.00 | 1.09 | 0.99 | 95 | 1009.8 |
| 20260509212101 | 13 | 45 | 0.0 | 4.8 | 0.00 | 1.09 | 0.99 | 96 | 1009.9 |
| 20260509211602 | 13 | 0 | 0.0 | 4.8 | 0.00 | 1.09 | 0.99 | 96 | 1010.0 |
| 20260509211058 | 13 | 294 | 0.0 | 4.8 | 0.00 | 1.09 | 0.99 | 96 | 1010.0 |
| 20260509210559 | 13 | 0 | 0.0 | 1.6 | 0.00 | 1.09 | 0.99 | 96 | 1010.1 |
| 20260509205558 | 13 | 0 | 0.0 | 4.8 | 0.00 | 1.12 | 0.99 | 96 | 1010.0 |
| 20260509205103 | 13 | 0 | 0.0 | 3.2 | 0.00 | 1.12 | 0.99 | 96 | 1010.1 |
| 20260509204607 | 13 | 350 | 0.0 | 3.2 | 0.03 | 1.12 | 0.99 | 96 | 1010.1 |
| 20260509204058 | 13 | 0 | 0.0 | 1.6 | 0.03 | 1.12 | 0.99 | 96 | 1010.2 |
| 20260509203558 | 12 | 0 | 0.0 | 1.6 | 0.03 | 1.12 | 0.99 | 96 | 1010.2 |
| 20260509203141 | 12 | 0 | 0.0 | 1.6 | 0.03 | 1.12 | 0.99 | 96 | 1010.3 |
| 20260509202604 | 12 | 0 | 0.0 | 1.6 | 0.03 | 1.12 | 0.99 | 96 | 1010.4 |
| 20260509202059 | 12 | 0 | 0.0 | 1.6 | 0.03 | 1.12 | 0.99 | 96 | 1010.5 |
| 20260509201622 | 12 | 282 | 0.0 | 3.2 | 0.03 | 1.12 | 0.99 | 96 | 1010.5 |
| 20260509201058 | 12 | 307 | 0.0 | 3.2 | 0.05 | 1.12 | 0.99 | 96 | 1010.4 |
| 20260509200558 | 12 | 0 | 0.0 | 6.4 | 0.05 | 1.12 | 0.99 | 96 | 1010.5 |
| 20260509200108 | 12 | 285 | 0.0 | 8.0 | 0.05 | 1.12 | 0.99 | 96 | 1010.5 |
| 20260509195559 | 12 | 296 | 1.6 | 8.0 | 0.05 | 1.12 | 0.99 | 96 | 1010.4 |
| 20260509195058 | 12 | 283 | 0.0 | 8.0 | 0.08 | 1.12 | 0.99 | 96 | 1010.5 |
| 20260509194601 | 12 | 229 | 0.0 | 6.4 | 0.08 | 1.09 | 0.97 | 96 | 1010.5 |
| 20260509194058 | 12 | 134 | 0.0 | 11.3 | 0.08 | 1.09 | 0.97 | 96 | 1010.5 |
| 20260509193559 | 11 | 213 | 3.2 | 11.3 | 0.10 | 1.09 | 0.97 | 96 | 1010.4 |
| 20260509193136 | 11 | 0 | 1.6 | 11.3 | 0.13 | 1.09 | 0.97 | 96 | 1010.6 |
| 20260509192600 | 11 | 280 | 1.6 | 9.7 | 0.18 | 1.09 | 0.97 | 96 | 1010.7 |
| 20260509192058 | 11 | 280 | 3.2 | 8.0 | 0.20 | 1.09 | 0.97 | 96 | 1010.7 |
| 20260509191615 | 11 | 297 | 0.0 | 165.8 | 0.23 | 1.09 | 0.97 | 96 | 1010.7 |
| 20260509191102 | 11 | 0 | 20.9 | 165.8 | 0.25 | 1.07 | 0.94 | 96 | 1010.7 |
| 20260509190557 | 11 | 283 | 0.0 | 278.4 | 0.28 | 1.07 | 0.94 | 96 | 1010.8 |
| 20260509190107 | 11 | 283 | 25.7 | 278.4 | 0.30 | 1.07 | 0.94 | 96 | 1010.8 |
| 20260509185558 | 11 | 285 | 22.5 | 244.6 | 0.33 | 1.07 | 0.94 | 96 | 1010.9 |
| 20260509185100 | 11 | 285 | 4.8 | 251.1 | 0.33 | 1.04 | 0.91 | 96 | 1011.0 |
| 20260509184601 | 11 | 264 | 56.3 | 251.1 | 0.33 | 1.02 | 0.89 | 96 | 1011.1 |
| 20260509184058 | 11 | 293 | 22.5 | 251.1 | 0.36 | 1.02 | 0.89 | 96 | 1011.2 |
| 20260509183602 | 11 | 0 | 37.0 | 223.7 | 0.33 | 0.99 | 0.86 | 96 | 1011.2 |
| 20260509183101 | 11 | 0 | 6.4 | 223.7 | 0.33 | 0.97 | 0.84 | 96 | 1011.2 |
| 20260509182601 | 11 | 0 | 0.0 | 3.2 | 0.30 | 0.91 | 0.79 | 96 | 1011.2 |
| 20260509182059 | 11 | 0 | 0.0 | 4.8 | 0.28 | 0.89 | 0.76 | 96 | 1011.4 |
| 20260509181602 | 11 | 0 | 0.0 | 4.8 | 0.28 | 0.86 | 0.74 | 96 | 1011.3 |
| 20260509181058 | 11 | 0 | 1.6 | 4.8 | 0.23 | 0.81 | 0.69 | 96 | 1011.3 |
| 20260509180600 | 11 | 0 | 0.0 | 1.6 | 0.20 | 0.79 | 0.66 | 96 | 1011.4 |
| 20260509180108 | 11 | 217 | 0.0 | 1.6 | 0.20 | 0.76 | 0.64 | 96 | 1011.4 |
| 20260509175558 | 11 | 0 | 0.0 | 8.0 | 0.20 | 0.74 | 0.61 | 96 | 1011.3 |
| 20260509175058 | 11 | 0 | 1.6 | 8.0 | 0.18 | 0.71 | 0.58 | 96 | 1011.3 |
| 20260509174614 | 11 | 0 | 0.0 | 1.6 | 0.18 | 0.69 | 0.56 | 96 | 1011.4 |
| 20260509174100 | 11 | 0 | 0.0 | 1.6 | 0.15 | 0.66 | 0.53 | 96 | 1011.3 |
| 20260509173600 | 11 | 250 | 0.0 | 1.6 | 0.18 | 0.66 | 0.53 | 96 | 1011.4 |
| 20260509173105 | 11 | 0 | 0.0 | 3.2 | 0.18 | 0.64 | 0.51 | 96 | 1011.3 |
| 20260509172600 | 11 | 0 | 0.0 | 3.2 | 0.15 | 0.61 | 0.48 | 96 | 1011.2 |
| 20260509172102 | 12 | 0 | 0.0 | 3.2 | 0.18 | 0.61 | 0.48 | 96 | 1011.2 |
| 20260509171559 | 12 | 0 | 0.0 | 1.6 | 0.15 | 0.58 | 0.46 | 96 | 1011.3 |
| 20260509171058 | 11 | 0 | 0.0 | 1.6 | 0.18 | 0.58 | 0.46 | 96 | 1011.2 |
| 20260509170559 | 11 | 0 | 0.0 | 1.6 | 0.20 | 0.58 | 0.46 | 96 | 1011.2 |
| 20260509170101 | 11 | 256 | 0.0 | 1.6 | 0.18 | 0.56 | 0.43 | 96 | 1011.1 |
| 20260509165559 | 11 | 0 | 0.0 | 1.6 | 0.15 | 0.53 | 0.41 | 96 | 1011.2 |
| 20260509165100 | 11 | 0 | 0.0 | 4.8 | 0.18 | 0.53 | 0.41 | 96 | 1011.3 |
| 20260509164609 | 11 | 0 | 0.0 | 4.8 | 0.15 | 0.51 | 0.38 | 96 | 1011.4 |
| 20260509164059 | 11 | 0 | 0.0 | 4.8 | 0.18 | 0.51 | 0.38 | 96 | 1011.5 |
| 20260509163601 | 11 | 0 | 0.0 | 6.4 | 0.15 | 0.48 | 0.36 | 96 | 1011.5 |
| 20260509163059 | 11 | 247 | 1.6 | 6.4 | 0.13 | 0.46 | 0.33 | 96 | 1011.5 |
| 20260509162558 | 11 | 0 | 0.0 | 8.0 | 0.13 | 0.46 | 0.33 | 96 | 1011.5 |
| 20260509162101 | 11 | 0 | 0.0 | 8.0 | 0.13 | 0.43 | 0.30 | 96 | 1011.6 |
| 20260509161602 | 11 | 0 | 0.0 | 6.4 | 0.13 | 0.43 | 0.30 | 96 | 1011.5 |
| 20260509161058 | 11 | 283 | 1.6 | 6.4 | 0.10 | 0.41 | 0.28 | 96 | 1011.5 |
| 20260509160559 | 12 | 0 | 0.0 | 6.4 | 0.10 | 0.38 | 0.25 | 96 | 1011.5 |
| 20260509160058 | 12 | 285 | 0.0 | 6.4 | 0.10 | 0.38 | 0.25 | 96 | 1011.7 |
| 20260509155559 | 12 | 134 | 0.0 | 3.2 | 0.10 | 0.38 | 0.25 | 96 | 1011.6 |
| 20260509155058 | 11 | 0 | 0.0 | 6.4 | 0.10 | 0.36 | 0.23 | 96 | 1011.6 |
| 20260509154559 | 11 | 0 | 0.0 | 8.0 | 0.10 | 0.36 | 0.23 | 96 | 1011.5 |
| 20260509154101 | 11 | 169 | 1.6 | 8.0 | 0.08 | 0.33 | 0.20 | 96 | 1011.6 |
| 20260509153558 | 11 | 0 | 3.2 | 8.0 | 0.08 | 0.33 | 0.20 | 96 | 1011.7 |
| 20260509153105 | 11 | 300 | 3.2 | 9.7 | 0.10 | 0.33 | 0.20 | 96 | 1011.6 |
| 20260509152558 | 12 | 0 | 1.6 | 9.7 | 0.10 | 0.33 | 0.20 | 96 | 1011.8 |
| 20260509152059 | 11 | 0 | 0.0 | 8.0 | 0.08 | 0.30 | 0.18 | 96 | 1011.6 |
| 20260509151609 | 11 | 0 | 0.0 | 8.0 | 0.08 | 0.30 | 0.18 | 96 | 1011.6 |
| 20260509151101 | 11 | 0 | 0.0 | 11.3 | 0.08 | 0.30 | 0.18 | 96 | 1011.6 |
| 20260509150558 | 11 | 0 | 0.0 | 11.3 | 0.05 | 0.28 | 0.15 | 96 | 1011.6 |
| 20260509150058 | 11 | 0 | 0.0 | 9.7 | 0.05 | 0.28 | 0.15 | 96 | 1011.7 |
| 20260509145601 | 11 | 0 | 0.0 | 6.4 | 0.05 | 0.28 | 0.15 | 96 | 1011.8 |
| 20260509145057 | 11 | 0 | 0.0 | 11.3 | 0.03 | 0.25 | 0.13 | 96 | 1011.8 |
| 20260509144605 | 11 | 0 | 0.0 | 11.3 | 0.03 | 0.25 | 0.13 | 96 | 1011.8 |
| 20260509144057 | 11 | 0 | 0.0 | 11.3 | 0.03 | 0.25 | 0.13 | 96 | 1011.6 |
| 20260509143559 | 11 | 0 | 0.0 | 6.4 | 0.03 | 0.25 | 0.13 | 96 | 1011.6 |
| 20260509143102 | 11 | 0 | 0.0 | 0.0 | 0.03 | 0.23 | 0.10 | 96 | 1011.5 |
| 20260509142558 | 11 | 0 | 0.0 | 6.4 | 0.03 | 0.23 | 0.10 | 96 | 1011.4 |
| 20260509142058 | 11 | 0 | 0.0 | 6.4 | 0.03 | 0.23 | 0.10 | 96 | 1011.4 |
| 20260509141603 | 11 | 0 | 0.0 | 6.4 | 0.03 | 0.23 | 0.10 | 96 | 1011.2 |
| 20260509141059 | 11 | 0 | 0.0 | 0.0 | 0.03 | 0.23 | 0.10 | 96 | 1011.3 |
| 20260509140558 | 11 | 0 | 0.0 | 0.0 | 0.03 | 0.23 | 0.10 | 96 | 1011.4 |
| 20260509140100 | 11 | 0 | 0.0 | 0.0 | 0.03 | 0.23 | 0.10 | 96 | 1011.4 |
| 20260509135558 | 11 | 0 | 0.0 | 0.0 | 0.03 | 0.25 | 0.10 | 96 | 1011.7 |
| 20260509135100 | 11 | 0 | 0.0 | 0.0 | 0.05 | 0.25 | 0.10 | 96 | 1011.5 |
| 20260509134601 | 11 | 0 | 0.0 | 0.0 | 0.05 | 0.25 | 0.10 | 96 | 1011.6 |
| 20260509134057 | 11 | 0 | 0.0 | 0.0 | 0.05 | 0.25 | 0.10 | 96 | 1011.4 |
| 20260509133558 | 11 | 0 | 0.0 | 0.0 | 0.05 | 0.25 | 0.10 | 96 | 1011.4 |
| 20260509133104 | 11 | 0 | 0.0 | 0.0 | 0.03 | 0.23 | 0.08 | 96 | 1011.4 |
| 20260509132604 | 10 | 0 | 0.0 | 1.6 | 0.03 | 0.23 | 0.08 | 96 | 1011.5 |
| 20260509132059 | 10 | 0 | 0.0 | 1.6 | 0.03 | 0.23 | 0.08 | 96 | 1011.4 |
| 20260509131602 | 10 | 0 | 0.0 | 1.6 | 0.03 | 0.23 | 0.08 | 96 | 1011.4 |
| 20260509131100 | 10 | 0 | 0.0 | 0.0 | 0.03 | 0.23 | 0.08 | 96 | 1011.5 |
| 20260509130558 | 10 | 0 | 0.0 | 0.0 | 0.03 | 0.23 | 0.08 | 96 | 1011.2 |
| 20260509130106 | 10 | 0 | 0.0 | 0.0 | 0.03 | 0.23 | 0.08 | 96 | 1011.3 |
| 20260509125559 | 10 | 0 | 0.0 | 0.0 | 0.03 | 0.23 | 0.08 | 96 | 1011.2 |
| 20260509125058 | 10 | 0 | 0.0 | 0.0 | 0.00 | 0.20 | 0.05 | 96 | 1011.2 |
| 20260509124601 | 10 | 0 | 0.0 | 1.6 | 0.00 | 0.20 | 0.05 | 96 | 1011.0 |
| 20260509124058 | 10 | 0 | 0.0 | 1.6 | 0.00 | 0.20 | 0.05 | 96 | 1011.1 |
| 20260509123558 | 10 | 0 | 0.0 | 1.6 | 0.00 | 0.20 | 0.05 | 96 | 1011.1 |
| 20260509123101 | 10 | 0 | 0.0 | 0.0 | 0.00 | 0.20 | 0.05 | 96 | 1011.1 |
| 20260509122558 | 10 | 0 | 0.0 | 1.6 | 0.00 | 0.20 | 0.05 | 96 | 1011.0 |
| 20260509122058 | 10 | 0 | 0.0 | 1.6 | 0.00 | 0.20 | 0.05 | 96 | 1011.1 |
| 20260509121558 | 10 | 0 | 0.0 | 1.6 | 0.00 | 0.20 | 0.05 | 96 | 1011.1 |
| 20260509121101 | 10 | 0 | 0.0 | 1.6 | 0.03 | 0.20 | 0.05 | 96 | 1011.1 |
| 20260509120559 | 10 | 0 | 0.0 | 3.2 | 0.03 | 0.20 | 0.05 | 96 | 1011.0 |
| 20260509115602 | 10 | 69 | 0.0 | 0.0 | 0.03 | 0.20 | 0.05 | 96 | 1011.0 |
| 20260509115058 | 9 | 0 | 0.0 | 1.6 | 0.03 | 0.20 | 0.05 | 96 | 1011.0 |
| 20260509114559 | 9 | 0 | 0.0 | 1.6 | 0.03 | 0.20 | 0.05 | 96 | 1011.0 |
| 20260509114059 | 9 | 0 | 0.0 | 3.2 | 0.03 | 0.20 | 0.05 | 96 | 1011.1 |
| 20260509113559 | 9 | 0 | 0.0 | 3.2 | 0.03 | 0.20 | 0.05 | 96 | 1011.1 |
| 20260509113114 | 9 | 82 | 0.0 | 1.6 | 0.03 | 0.20 | 0.05 | 96 | 1011.2 |
| 20260509112558 | 9 | 0 | 0.0 | 1.6 | 0.03 | 0.20 | 0.05 | 96 | 1011.2 |
| 20260509112059 | 9 | 0 | 0.0 | 1.6 | 0.03 | 0.20 | 0.05 | 96 | 1011.3 |
| 20260509111606 | 9 | 0 | 0.0 | 1.6 | 0.03 | 0.20 | 0.05 | 96 | 1011.5 |
| 20260509111058 | 9 | 0 | 0.0 | 1.6 | 0.00 | 0.18 | 0.03 | 96 | 1011.3 |
| 20260509110559 | 9 | 0 | 0.0 | 3.2 | 0.00 | 0.18 | 0.03 | 96 | 1011.3 |
| 20260509110059 | 9 | 0 | 0.0 | 3.2 | 0.00 | 0.18 | 0.03 | 96 | 1011.3 |
| 20260509105602 | 9 | 0 | 0.0 | 3.2 | 0.00 | 0.18 | 0.03 | 96 | 1011.4 |
| 20260509105058 | 9 | 0 | 0.0 | 3.2 | 0.00 | 0.18 | 0.03 | 96 | 1011.3 |
| 20260509104558 | 9 | 0 | 0.0 | 1.6 | 0.00 | 0.18 | 0.03 | 96 | 1011.4 |
| 20260509104057 | 9 | 0 | 0.0 | 1.6 | 0.00 | 0.18 | 0.03 | 96 | 1011.4 |
| 20260509103558 | 9 | 0 | 0.0 | 1.6 | 0.00 | 0.18 | 0.03 | 96 | 1011.5 |
| 20260509103105 | 9 | 0 | 0.0 | 1.6 | 0.00 | 0.18 | 0.03 | 96 | 1011.4 |
| 20260509102601 | 8 | 0 | 0.0 | 1.6 | 0.00 | 0.18 | 0.03 | 96 | 1011.4 |
| 20260509102058 | 8 | 0 | 0.0 | 0.0 | 0.00 | 0.18 | 0.03 | 96 | 1011.4 |
| 20260509101558 | 8 | 0 | 0.0 | 0.0 | 0.00 | 0.18 | 0.03 | 96 | 1011.5 |
| 20260509101058 | 8 | 0 | 0.0 | 0.0 | 0.00 | 0.18 | 0.03 | 96 | 1011.6 |
| 20260509100558 | 8 | 0 | 0.0 | 0.0 | 0.00 | 0.18 | 0.03 | 96 | 1011.5 |
| 20260509100100 | 8 | 0 | 0.0 | 0.0 | 0.00 | 0.18 | 0.03 | 96 | 1011.5 |
| 20260509095558 | 8 | 0 | 0.0 | 0.0 | 0.00 | 0.18 | 0.03 | 96 | 1011.5 |
| 20260509095059 | 8 | 0 | 0.0 | 0.0 | 0.00 | 0.18 | 0.03 | 96 | 1011.4 |
| 20260509094558 | 8 | 0 | 0.0 | 0.0 | 0.00 | 0.18 | 0.03 | 96 | 1011.5 |
| 20260509094058 | 8 | 0 | 0.0 | 0.0 | 0.00 | 0.18 | 0.03 | 96 | 1011.3 |
| 20260509093558 | 8 | 0 | 0.0 | 0.0 | 0.00 | 0.18 | 0.03 | 96 | 1011.4 |
| 20260509093100 | 8 | 0 | 0.0 | 0.0 | 0.00 | 0.18 | 0.03 | 96 | 1011.4 |
| 20260509092557 | 8 | 0 | 0.0 | 0.0 | 0.00 | 0.18 | 0.03 | 96 | 1011.4 |
| 20260509092058 | 8 | 0 | 0.0 | 0.0 | 0.00 | 0.18 | 0.03 | 96 | 1011.4 |
| 20260509091607 | 8 | 0 | 0.0 | 1.6 | 0.00 | 0.18 | 0.03 | 96 | 1011.5 |
| 20260509091058 | 8 | 0 | 0.0 | 3.2 | 0.00 | 0.18 | 0.03 | 96 | 1011.5 |
| 20260509090558 | 8 | 0 | 0.0 | 3.2 | 0.00 | 0.18 | 0.03 | 96 | 1011.3 |
| 20260509090059 | 8 | 0 | 0.0 | 3.2 | 0.00 | 0.18 | 0.03 | 96 | 1011.6 |
| 20260509085557 | 8 | 156 | 0.0 | 3.2 | 0.00 | 0.18 | 0.03 | 96 | 1011.8 |
| 20260509085100 | 8 | 133 | 0.0 | 4.8 | 0.00 | 0.18 | 0.03 | 96 | 1011.6 |
| 20260509084557 | 8 | 132 | 0.0 | 4.8 | 0.00 | 0.18 | 0.03 | 96 | 1011.8 |
| 20260509084058 | 8 | 182 | 0.0 | 1.6 | 0.00 | 0.18 | 0.03 | 96 | 1011.7 |
| 20260509083558 | 8 | 0 | 0.0 | 1.6 | 0.00 | 0.18 | 0.03 | 96 | 1011.9 |
| 20260509083057 | 8 | 0 | 0.0 | 0.0 | 0.00 | 0.18 | 0.03 | 96 | 1012.0 |
| 20260509082558 | 8 | 0 | 0.0 | 0.0 | 0.00 | 0.18 | 0.03 | 96 | 1012.0 |
| 20260509082100 | 8 | 0 | 0.0 | 0.0 | 0.00 | 0.18 | 0.03 | 96 | 1012.1 |
| 20260509081604 | 8 | 0 | 0.0 | 0.0 | 0.00 | 0.18 | 0.03 | 96 | 1012.1 |
| 20260509081058 | 8 | 0 | 0.0 | 1.6 | 0.03 | 0.18 | 0.03 | 96 | 1012.3 |
| 20260509080558 | 8 | 0 | 0.0 | 1.6 | 0.03 | 0.18 | 0.03 | 96 | 1012.3 |
| 20260509080110 | 8 | 0 | 0.0 | 1.6 | 0.03 | 0.18 | 0.03 | 96 | 1012.3 |
| 20260509075558 | 8 | 0 | 0.0 | 1.6 | 0.03 | 0.18 | 0.03 | 96 | 1012.3 |
| 20260509075058 | 8 | 0 | 0.0 | 1.6 | 0.03 | 0.18 | 0.03 | 96 | 1012.4 |
| 20260509074559 | 8 | 0 | 0.0 | 1.6 | 0.03 | 0.18 | 0.03 | 96 | 1012.4 |
| 20260509074100 | 8 | 0 | 0.0 | 1.6 | 0.03 | 0.18 | 0.03 | 96 | 1012.4 |
| 20260509073600 | 8 | 0 | 0.0 | 0.0 | 0.03 | 0.18 | 0.03 | 96 | 1012.5 |
| 20260509073058 | 8 | 0 | 0.0 | 1.6 | 0.03 | 0.18 | 0.03 | 96 | 1012.5 |
| 20260509072558 | 8 | 0 | 0.0 | 4.8 | 0.03 | 0.18 | 0.03 | 96 | 1012.4 |
| 20260509072058 | 8 | 148 | 1.6 | 4.8 | 0.03 | 0.18 | 0.03 | 96 | 1012.4 |